TVF52VN LFLL-LGIR

Flight info

Callsign TVF52VN
Flight time 2h 39m
Altitude 37000
Route RISOR T47 GEMLA DCT VANAS DCT MEDAM DCT NITAM DCT MOGBO DCT KODOK DCT TOP DCT LURUT DCT IBENI/N0438F380 DCT KOFER/N0438F390 DCT PINDO UL607 GIVIS T514 XAVIS
Aircraft B738/M-SDFGHIJ1RWXY/LB1

Departure

Time 2026-05-06 14:55
Airport Lyon Saint-Exupéry Airport (LFLL)

Arrival

Time 2026-05-06 17:34
Airport Heraklion International Nikos Kazantzakis Airport (LGIR)
Time Latitude Longitude Altitude Speed Heading
2026-05-06 14:28 45.71594 5.08268 801 ft 0 kts 195°
2026-05-06 14:44 45.71605 5.08272 801 ft 4 kts 195°
2026-05-06 14:44 45.71631 5.08282 800 ft 3 kts 195°
2026-05-06 14:45 45.71672 5.08282 800 ft 4 kts 113°
2026-05-06 14:45 45.71675 5.08254 800 ft 4 kts 106°
2026-05-06 14:45 45.71677 5.08243 800 ft 1 kts 101°
2026-05-06 14:47 45.71677 5.08244 800 ft 0 kts 101°
2026-05-06 14:47 45.71676 5.08260 800 ft 4 kts 96°
2026-05-06 14:47 45.71678 5.08328 799 ft 9 kts 85°
2026-05-06 14:48 45.71684 5.08424 800 ft 10 kts 84°
2026-05-06 14:48 45.71729 5.08485 801 ft 10 kts
2026-05-06 14:48 45.71819 5.08477 801 ft 16 kts 355°
2026-05-06 14:48 45.71938 5.08464 801 ft 19 kts 355°
2026-05-06 14:49 45.72075 5.08448 802 ft 20 kts 355°
2026-05-06 14:49 45.72226 5.08429 799 ft 24 kts 355°
2026-05-06 14:49 45.72401 5.08408 796 ft 27 kts 355°
2026-05-06 14:49 45.72595 5.08385 793 ft 29 kts 355°
2026-05-06 14:50 45.72811 5.08358 790 ft 32 kts 355°
2026-05-06 14:50 45.73029 5.08331 786 ft 31 kts 355°
2026-05-06 14:50 45.73239 5.08305 783 ft 29 kts 354°
2026-05-06 14:50 45.73438 5.08281 779 ft 28 kts 355°
2026-05-06 14:51 45.73620 5.08259 778 ft 23 kts 355°
2026-05-06 14:51 45.73713 5.08300 776 ft 14 kts 52°
2026-05-06 14:51 45.73723 5.08427 776 ft 13 kts 104°
2026-05-06 14:51 45.73702 5.08543 775 ft 8 kts 104°
2026-05-06 14:52 45.73698 5.08568 775 ft 0 kts 105°
2026-05-06 14:54 45.73697 5.08572 775 ft 1 kts 105°
2026-05-06 14:54 45.73693 5.08602 775 ft 6 kts 95°
2026-05-06 14:54 45.73693 5.08686 775 ft 10 kts 110°
2026-05-06 14:54 45.73602 5.08725 779 ft 29 kts 174°
2026-05-06 14:55 45.73148 5.08781 789 ft 100 kts 174°
2026-05-06 14:55 45.72253 5.08892 802 ft 159 kts 173°
2026-05-06 14:55 45.71106 5.09032 1431 ft 165 kts 175°
2026-05-06 14:55 45.69943 5.09159 2289 ft 173 kts 176°
2026-05-06 14:56 45.68634 5.09306 2668 ft 204 kts 175°
2026-05-06 14:56 45.67127 5.09499 2949 ft 227 kts 175°
2026-05-06 14:56 45.65527 5.09708 3616 ft 234 kts 175°
2026-05-06 14:56 45.63882 5.09908 4361 ft 239 kts 175°
2026-05-06 14:57 45.62227 5.10155 5233 ft 243 kts 169°
2026-05-06 14:57 45.60640 5.11060 5799 ft 258 kts 147°
2026-05-06 14:57 45.59362 5.12899 6544 ft 267 kts 123°
2026-05-06 14:57 45.58660 5.15369 7351 ft 272 kts 106°
2026-05-06 14:58 45.58202 5.18016 8120 ft 278 kts 104°
2026-05-06 14:58 45.57765 5.20726 8894 ft 282 kts 104°
2026-05-06 14:58 45.57324 5.23468 9694 ft 286 kts 104°
2026-05-06 14:58 45.56871 5.26252 10400 ft 290 kts 104°
2026-05-06 14:59 45.56406 5.29075 11121 ft 294 kts 104°
2026-05-06 14:59 45.55931 5.31924 11878 ft 297 kts 104°
2026-05-06 14:59 45.55453 5.34774 12626 ft 302 kts 105°
2026-05-06 14:59 45.54958 5.37704 13424 ft 307 kts 105°
2026-05-06 15:00 45.54422 5.40657 13921 ft 308 kts 108°
2026-05-06 15:00 45.53746 5.43577 14541 ft 313 kts 110°
2026-05-06 15:00 45.53018 5.46517 15211 ft 315 kts 111°
2026-05-06 15:00 45.52280 5.49461 15969 ft 316 kts 111°
2026-05-06 15:01 45.51538 5.52437 16652 ft 321 kts 111°
2026-05-06 15:01 45.50772 5.55522 16900 ft 341 kts 111°
2026-05-06 15:01 45.49964 5.58797 17066 ft 360 kts 111°
2026-05-06 15:01 45.49117 5.62250 17285 ft 376 kts 111°
2026-05-06 15:02 45.48261 5.65759 17822 ft 382 kts 111°
2026-05-06 15:02 45.47386 5.69351 18454 ft 385 kts 111°
2026-05-06 15:02 45.46507 5.72964 19059 ft 387 kts 111°
2026-05-06 15:02 45.45623 5.76594 19654 ft 389 kts 111°
2026-05-06 15:03 45.44732 5.80244 20193 ft 392 kts 111°
2026-05-06 15:03 45.43833 5.83922 20714 ft 395 kts 112°
2026-05-06 15:03 45.42926 5.87616 21318 ft 395 kts 112°
2026-05-06 15:03 45.42015 5.91333 21719 ft 402 kts 112°
2026-05-06 15:04 45.41095 5.95066 22093 ft 407 kts 112°
2026-05-06 15:04 45.40155 5.98872 22632 ft 408 kts 112°
2026-05-06 15:04 45.39214 6.02692 23155 ft 411 kts 112°
2026-05-06 15:04 45.38265 6.06541 23628 ft 414 kts 113°
2026-05-06 15:05 45.37307 6.10413 23989 ft 417 kts 113°
2026-05-06 15:05 45.36339 6.14320 24355 ft 420 kts 113°
2026-05-06 15:05 45.35362 6.18254 24746 ft 424 kts 113°
2026-05-06 15:05 45.34377 6.22219 25060 ft 428 kts 114°
2026-05-06 15:06 45.33391 6.26169 25395 ft 432 kts 115°
2026-05-06 15:06 45.32384 6.30200 25689 ft 433 kts 115°
2026-05-06 15:06 45.31375 6.34238 25985 ft 435 kts 115°
2026-05-06 15:06 45.30358 6.38298 26354 ft 438 kts 115°
2026-05-06 15:07 45.29332 6.42387 26707 ft 441 kts 115°
2026-05-06 15:07 45.28298 6.46498 27101 ft 443 kts 116°
2026-05-06 15:07 45.27255 6.50633 27406 ft 447 kts 116°
2026-05-06 15:07 45.26204 6.54794 27710 ft 449 kts 116°
2026-05-06 15:08 45.25145 6.58981 27987 ft 452 kts 117°
2026-05-06 15:08 45.24091 6.63142 28309 ft 455 kts 117°
2026-05-06 15:08 45.23018 6.67378 28665 ft 457 kts 117°
2026-05-06 15:08 45.21937 6.71633 29031 ft 460 kts 117°
2026-05-06 15:09 45.20849 6.75907 29356 ft 462 kts 117°
2026-05-06 15:09 45.19754 6.80198 29606 ft 463 kts 117°
2026-05-06 15:09 45.18655 6.84502 29890 ft 466 kts 117°
2026-05-06 15:09 45.17547 6.88827 30093 ft 468 kts 117°
2026-05-06 15:10 45.16429 6.93186 30211 ft 473 kts 117°
2026-05-06 15:10 45.15303 6.97570 30563 ft 472 kts 117°
2026-05-06 15:10 45.14185 7.01925 30963 ft 470 kts 117°
2026-05-06 15:10 45.13068 7.06271 31240 ft 470 kts 117°
2026-05-06 15:11 45.11946 7.10618 31417 ft 471 kts 117°
2026-05-06 15:11 45.11009 7.15039 31588 ft 480 kts 109°
2026-05-06 15:11 45.10383 7.19690 31804 ft 481 kts 107°
2026-05-06 15:11 45.09755 7.24329 32029 ft 479 kts 107°
2026-05-06 15:12 45.09119 7.28952 32119 ft 480 kts 108°
2026-05-06 15:12 45.08481 7.33598 32319 ft 481 kts 108°
2026-05-06 15:12 45.07849 7.38234 32640 ft 478 kts 108°
2026-05-06 15:12 45.07219 7.42842 33017 ft 476 kts 108°
2026-05-06 15:13 45.06587 7.47437 33316 ft 476 kts 108°
2026-05-06 15:13 45.05952 7.52024 33553 ft 475 kts 108°
2026-05-06 15:13 45.05326 7.56543 33855 ft 474 kts 108°
2026-05-06 15:13 45.04693 7.61110 34099 ft 473 kts 108°
2026-05-06 15:14 45.04057 7.65679 34325 ft 474 kts 108°
2026-05-06 15:14 45.03417 7.70257 34443 ft 476 kts 109°
2026-05-06 15:14 45.02769 7.74865 34565 ft 479 kts 108°
2026-05-06 15:14 45.02122 7.79473 34857 ft 477 kts 108°
2026-05-06 15:15 45.01477 7.84064 35132 ft 476 kts 108°
2026-05-06 15:15 45.00829 7.88650 35304 ft 476 kts 108°
2026-05-06 15:15 45.00176 7.93242 35473 ft 477 kts 108°
2026-05-06 15:15 44.99520 7.97839 35678 ft 477 kts 108°
2026-05-06 15:16 44.98864 8.02431 35911 ft 476 kts 108°
2026-05-06 15:16 44.98217 8.06950 36075 ft 477 kts 108°
2026-05-06 15:16 44.97555 8.11550 36174 ft 479 kts 108°
2026-05-06 15:16 44.96889 8.16165 36342 ft 480 kts 108°
2026-05-06 15:17 44.96223 8.20775 36583 ft 479 kts 108°
2026-05-06 15:17 44.95558 8.25376 36779 ft 478 kts 108°
2026-05-06 15:17 44.94887 8.29988 36805 ft 481 kts 108°
2026-05-06 15:18 44.93536 8.39238 36814 ft 480 kts 108°
2026-05-06 15:18 44.92191 8.48419 36812 ft 476 kts 108°
2026-05-06 15:19 44.90846 8.57531 36804 ft 473 kts 108°
2026-05-06 15:19 44.89509 8.66528 36810 ft 471 kts 108°
2026-05-06 15:20 44.88159 8.75560 36812 ft 471 kts 108°
2026-05-06 15:20 44.86801 8.84586 36810 ft 471 kts 108°
2026-05-06 15:21 44.85432 8.93632 36826 ft 473 kts 108°
2026-05-06 15:21 44.84048 9.02724 36814 ft 476 kts 108°
2026-05-06 15:22 44.82652 9.11855 36785 ft 478 kts 108°
2026-05-06 15:22 44.81255 9.20947 36814 ft 478 kts 108°
2026-05-06 15:23 44.79838 9.30114 36831 ft 480 kts 108°
2026-05-06 15:23 44.78410 9.39292 36833 ft 481 kts 108°
2026-05-06 15:24 44.76973 9.48485 36830 ft 480 kts 109°
2026-05-06 15:24 44.75534 9.57642 36835 ft 478 kts 109°
2026-05-06 15:25 44.74094 9.66750 36837 ft 477 kts 109°
2026-05-06 15:25 44.72657 9.75788 36837 ft 476 kts 109°
2026-05-06 15:26 44.71206 9.84861 36842 ft 475 kts 109°
2026-05-06 15:26 44.69749 9.93921 36843 ft 475 kts 110°
2026-05-06 15:27 44.68289 10.02954 36860 ft 473 kts 110°
2026-05-06 15:27 44.66826 10.11961 36855 ft 472 kts 110°
2026-05-06 15:28 44.65359 10.20938 36848 ft 472 kts 110°
2026-05-06 15:28 44.63895 10.29849 36841 ft 471 kts 110°
2026-05-06 15:29 44.62415 10.38813 36915 ft 472 kts 110°
2026-05-06 15:29 44.60923 10.47797 36920 ft 473 kts 110°
2026-05-06 15:30 44.59420 10.56808 36911 ft 475 kts 110°
2026-05-06 15:30 44.57917 10.65774 36911 ft 475 kts 110°
2026-05-06 15:31 44.56394 10.74811 36925 ft 477 kts 110°
2026-05-06 15:31 44.54861 10.83859 36934 ft 478 kts 110°
2026-05-06 15:32 44.52544 10.97457 36931 ft 479 kts 110°
2026-05-06 15:32 44.51044 11.06553 36928 ft 480 kts 109°
2026-05-06 15:33 44.49595 11.15675 36926 ft 480 kts 109°
2026-05-06 15:33 44.48150 11.24720 36924 ft 479 kts 109°
2026-05-06 15:34 44.46682 11.33804 36829 ft 478 kts 109°
2026-05-06 15:34 44.45207 11.42852 36865 ft 476 kts 109°
2026-05-06 15:35 44.43725 11.51882 36879 ft 475 kts 109°
2026-05-06 15:35 44.42240 11.60886 36893 ft 475 kts 109°
2026-05-06 15:36 44.40751 11.69871 36881 ft 474 kts 109°
2026-05-06 15:36 44.39268 11.78771 36900 ft 473 kts 109°
2026-05-06 15:37 44.37768 11.87727 36916 ft 473 kts 109°
2026-05-06 15:37 44.36259 11.96687 36903 ft 474 kts 110°
2026-05-06 15:38 44.34743 12.05644 36863 ft 474 kts 109°
2026-05-06 15:38 44.33220 12.14602 36890 ft 474 kts 109°
2026-05-06 15:39 44.31697 12.23506 36900 ft 475 kts 109°
2026-05-06 15:39 44.30153 12.32492 36904 ft 476 kts 109°
2026-05-06 15:40 44.28599 12.41491 36847 ft 477 kts 109°
2026-05-06 15:40 44.27038 12.50488 36881 ft 477 kts 109°
2026-05-06 15:41 44.25487 12.59380 36886 ft 478 kts 109°
2026-05-06 15:41 44.23921 12.68318 36888 ft 478 kts 109°
2026-05-06 15:42 44.22366 12.77140 36867 ft 478 kts 109°
2026-05-06 15:42 44.20776 12.86124 36887 ft 477 kts 109°
2026-05-06 15:43 44.19313 12.94348 36896 ft 477 kts 109°
2026-05-06 15:43 44.17721 13.03258 36895 ft 477 kts 109°
2026-05-06 15:44 44.16113 13.12210 36904 ft 477 kts 109°
2026-05-06 15:44 44.14498 13.21162 36907 ft 476 kts 109°
2026-05-06 15:45 44.12878 13.30092 36909 ft 476 kts 109°
2026-05-06 15:45 44.11249 13.39031 36912 ft 476 kts 109°
2026-05-06 15:46 44.09614 13.47958 36913 ft 476 kts 109°
2026-05-06 15:46 44.07983 13.56827 36911 ft 477 kts 109°
2026-05-06 15:47 44.06330 13.65768 36923 ft 478 kts 109°
2026-05-06 15:47 44.04668 13.74719 36921 ft 479 kts 109°
2026-05-06 15:48 44.02997 13.83680 36924 ft 480 kts 109°
2026-05-06 15:48 44.01175 13.92578 36910 ft 475 kts 117°
2026-05-06 15:49 43.98134 14.00601 36930 ft 468 kts 126°
2026-05-06 15:49 43.94863 14.08423 36926 ft 469 kts 126°
2026-05-06 15:50 43.91630 14.16213 36920 ft 469 kts 125°
2026-05-06 15:50 43.88397 14.24079 36907 ft 469 kts 125°
2026-05-06 15:51 43.85176 14.31934 36918 ft 469 kts 125°
2026-05-06 15:51 43.81953 14.39777 36928 ft 468 kts 125°
2026-05-06 15:52 43.78727 14.47599 36932 ft 468 kts 125°
2026-05-06 15:52 43.75521 14.55351 36936 ft 467 kts 126°
2026-05-06 15:53 43.72288 14.63146 36933 ft 467 kts 126°
2026-05-06 15:53 43.69055 14.70920 36940 ft 466 kts 126°
2026-05-06 15:54 43.65816 14.78687 36940 ft 466 kts 126°
2026-05-06 15:54 43.62601 14.86377 36935 ft 466 kts 126°
2026-05-06 15:55 43.59356 14.94118 36927 ft 465 kts 126°
2026-05-06 15:55 43.56114 15.01829 36938 ft 465 kts 126°
2026-05-06 15:56 43.52865 15.09537 36946 ft 465 kts 126°
2026-05-06 15:56 43.49631 15.17189 36946 ft 465 kts 126°
2026-05-06 15:57 43.46372 15.24878 36956 ft 465 kts 126°
2026-05-06 15:57 43.43104 15.32570 36944 ft 465 kts 126°
2026-05-06 15:58 43.39835 15.40244 36958 ft 465 kts 126°
2026-05-06 15:58 43.36557 15.47918 36960 ft 465 kts 126°
2026-05-06 15:59 43.33297 15.55530 36961 ft 465 kts 126°
2026-05-06 15:59 43.30008 15.63191 36961 ft 466 kts 126°
2026-05-06 16:00 43.26719 15.70830 36964 ft 465 kts 126°
2026-05-06 16:00 43.23422 15.78468 36972 ft 465 kts 126°
2026-05-06 16:01 43.20122 15.86095 36973 ft 465 kts 126°
2026-05-06 16:01 43.16838 15.93661 36975 ft 465 kts 126°
2026-05-06 16:02 43.13532 16.01261 36960 ft 464 kts 126°
2026-05-06 16:02 43.10222 16.08851 36981 ft 464 kts 126°
2026-05-06 16:03 43.06908 16.16428 36963 ft 464 kts 126°
2026-05-06 16:03 43.03615 16.23939 36977 ft 463 kts 126°
2026-05-06 16:04 43.00294 16.31494 36983 ft 464 kts 126°
2026-05-06 16:04 42.96966 16.39045 36988 ft 464 kts 126°
2026-05-06 16:05 42.94192 16.45325 36987 ft 465 kts 126°
2026-05-06 16:05 42.90846 16.52881 36999 ft 466 kts 126°
2026-05-06 16:06 42.87491 16.60439 36993 ft 466 kts 126°
2026-05-06 16:06 42.84125 16.68001 36996 ft 467 kts 126°
2026-05-06 16:07 42.80777 16.75505 36992 ft 467 kts 126°
2026-05-06 16:07 42.77402 16.83051 36996 ft 467 kts 126°
2026-05-06 16:08 42.74020 16.90592 37005 ft 467 kts 126°
2026-05-06 16:08 42.70632 16.98127 37007 ft 467 kts 126°
2026-05-06 16:09 42.67239 17.05654 37004 ft 467 kts 126°
2026-05-06 16:09 42.63866 17.13118 37013 ft 466 kts 126°
2026-05-06 16:10 42.60469 17.20616 37019 ft 466 kts 126°
2026-05-06 16:10 42.57070 17.28100 37017 ft 466 kts 126°
2026-05-06 16:11 42.53668 17.35571 37018 ft 465 kts 126°
2026-05-06 16:11 42.50287 17.42977 37012 ft 465 kts 126°
2026-05-06 16:12 42.46884 17.50413 37012 ft 464 kts 126°
2026-05-06 16:12 42.43481 17.57831 37026 ft 464 kts 126°
2026-05-06 16:13 42.40073 17.65241 37030 ft 464 kts 126°
2026-05-06 16:13 42.36660 17.72643 37032 ft 464 kts 126°
2026-05-06 16:14 42.33266 17.79983 37033 ft 464 kts 125°
2026-05-06 16:14 42.29845 17.87368 37035 ft 464 kts 125°
2026-05-06 16:15 42.26417 17.94748 37046 ft 464 kts 125°
2026-05-06 16:15 42.22981 18.02128 37040 ft 464 kts 126°
2026-05-06 16:16 42.19564 18.09449 37047 ft 464 kts 126°
2026-05-06 16:16 42.16116 18.16817 37034 ft 465 kts 126°
2026-05-06 16:17 42.12664 18.24178 37059 ft 465 kts 126°
2026-05-06 16:17 42.09199 18.31547 37042 ft 466 kts 126°
2026-05-06 16:18 42.05725 18.38916 37052 ft 466 kts 126°
2026-05-06 16:18 42.02270 18.46231 37065 ft 467 kts 126°
2026-05-06 16:19 41.98783 18.53595 37049 ft 467 kts 126°
2026-05-06 16:19 41.95291 18.60953 37056 ft 467 kts 126°
2026-05-06 16:20 41.91722 18.68229 37047 ft 465 kts 130°
2026-05-06 16:20 41.87701 18.74926 37060 ft 463 kts 133°
2026-05-06 16:21 41.83555 18.81534 37050 ft 463 kts 133°
2026-05-06 16:21 41.79432 18.88170 37061 ft 463 kts 133°
2026-05-06 16:22 41.75328 18.94844 37109 ft 466 kts 133°
2026-05-06 16:22 41.73267 18.98204 37293 ft 467 kts 133°
2026-05-06 16:22 41.71241 19.01507 37605 ft 464 kts 133°
2026-05-06 16:23 41.69200 19.04834 37912 ft 461 kts 133°
2026-05-06 16:23 41.67164 19.08145 38073 ft 461 kts 133°
2026-05-06 16:23 41.63056 19.14809 38067 ft 465 kts 133°
2026-05-06 16:24 41.58947 19.21460 38053 ft 463 kts 133°
2026-05-06 16:24 41.54855 19.28071 38064 ft 461 kts 133°
2026-05-06 16:25 41.50799 19.34607 38063 ft 460 kts 133°
2026-05-06 16:25 41.46722 19.41164 38071 ft 459 kts 133°
2026-05-06 16:26 41.42643 19.47708 38059 ft 459 kts 133°
2026-05-06 16:26 41.38562 19.54242 38069 ft 459 kts 133°
2026-05-06 16:27 41.34499 19.60733 38071 ft 460 kts 133°
2026-05-06 16:27 41.30389 19.67285 38052 ft 462 kts 133°
2026-05-06 16:28 41.26269 19.73839 38077 ft 463 kts 133°
2026-05-06 16:28 41.22130 19.80409 38068 ft 464 kts 133°
2026-05-06 16:29 41.18004 19.86943 38129 ft 467 kts 133°
2026-05-06 16:29 41.15917 19.90243 38330 ft 466 kts 133°
2026-05-06 16:29 41.13839 19.93528 38604 ft 464 kts 133°
2026-05-06 16:30 41.11768 19.96798 38844 ft 462 kts 133°
2026-05-06 16:30 41.10401 19.98954 38946 ft 461 kts 133°
2026-05-06 16:30 41.05558 20.06576 39054 ft 465 kts 133°
2026-05-06 16:31 41.01407 20.13092 39063 ft 466 kts 133°
2026-05-06 16:31 40.97216 20.19660 39060 ft 468 kts 133°
2026-05-06 16:32 40.93011 20.26235 39055 ft 468 kts 133°
2026-05-06 16:32 40.88802 20.32803 39056 ft 468 kts 133°
2026-05-06 16:33 40.84618 20.39317 39059 ft 468 kts 133°
2026-05-06 16:34 40.78298 20.49131 39050 ft 467 kts 133°
2026-05-06 16:34 40.74096 20.55640 39038 ft 465 kts 133°
2026-05-06 16:35 40.69903 20.62119 39039 ft 464 kts 133°
2026-05-06 16:35 40.65749 20.68525 39048 ft 462 kts 133°
2026-05-06 16:36 40.61569 20.74958 39040 ft 462 kts 133°
2026-05-06 16:36 40.57388 20.81379 39048 ft 462 kts 133°
2026-05-06 16:37 40.53201 20.87797 39039 ft 462 kts 133°
2026-05-06 16:37 40.49045 20.94154 39052 ft 462 kts 133°
2026-05-06 16:38 40.44483 21.00057 39052 ft 460 kts 142°
2026-05-06 16:38 40.39621 21.05523 39049 ft 461 kts 142°
2026-05-06 16:39 40.34748 21.11013 39052 ft 463 kts 142°
2026-05-06 16:39 40.29922 21.16527 39035 ft 464 kts 141°
2026-05-06 16:40 40.25062 21.22106 39045 ft 465 kts 141°
2026-05-06 16:40 40.20185 21.27694 39036 ft 467 kts 141°
2026-05-06 16:41 40.15294 21.33284 39034 ft 467 kts 141°
2026-05-06 16:41 40.10424 21.38837 39031 ft 468 kts 141°
2026-05-06 16:42 40.05524 21.44414 39029 ft 467 kts 141°
2026-05-06 16:42 40.00627 21.49978 39027 ft 466 kts 141°
2026-05-06 16:43 39.95739 21.55520 39024 ft 465 kts 141°
2026-05-06 16:43 39.90886 21.61004 39012 ft 464 kts 142°
2026-05-06 16:44 39.86018 21.66493 39026 ft 462 kts 142°
2026-05-06 16:44 39.81161 21.71962 39026 ft 461 kts 142°
2026-05-06 16:45 39.76307 21.77417 39021 ft 461 kts 142°
2026-05-06 16:45 39.71492 21.82818 39017 ft 460 kts 141°
2026-05-06 16:46 39.66646 21.88245 39014 ft 460 kts 141°
2026-05-06 16:46 39.61809 21.93652 39011 ft 459 kts 141°
2026-05-06 16:47 39.56968 21.99051 39017 ft 459 kts 141°
2026-05-06 16:47 39.52157 22.04407 39018 ft 459 kts 142°
2026-05-06 16:48 39.47309 22.09794 39018 ft 460 kts 142°
2026-05-06 16:48 39.42451 22.15182 39015 ft 460 kts 141°
2026-05-06 16:49 39.37580 22.20574 39017 ft 461 kts 141°
2026-05-06 16:49 39.32733 22.25929 39021 ft 462 kts 142°
2026-05-06 16:50 39.27844 22.31321 39024 ft 463 kts 142°
2026-05-06 16:50 39.22937 22.36721 39026 ft 464 kts 142°
2026-05-06 16:51 39.18020 22.42124 39031 ft 465 kts 142°
2026-05-06 16:51 39.13093 22.47523 39032 ft 465 kts 141°
2026-05-06 16:52 39.08201 22.52887 39022 ft 465 kts 141°
2026-05-06 16:52 39.03327 22.58374 39032 ft 466 kts 139°
2026-05-06 16:53 38.98608 22.64075 39036 ft 466 kts 138°
2026-05-06 16:53 38.93897 22.69782 39037 ft 465 kts 139°
2026-05-06 16:54 38.89196 22.75407 39032 ft 465 kts 139°
2026-05-06 16:54 38.84454 22.81031 39037 ft 464 kts 139°
2026-05-06 16:55 38.79717 22.86641 39030 ft 463 kts 139°
2026-05-06 16:55 38.74989 22.92233 39040 ft 463 kts 139°
2026-05-06 16:56 38.70287 22.97782 39035 ft 463 kts 139°
2026-05-06 16:56 38.65555 23.03356 39038 ft 462 kts 139°
2026-05-06 16:57 38.60819 23.08924 39037 ft 463 kts 139°
2026-05-06 16:57 38.56074 23.14493 39039 ft 463 kts 139°
2026-05-06 16:58 38.51353 23.20023 39043 ft 464 kts 139°
2026-05-06 16:58 38.46586 23.25596 39046 ft 465 kts 139°
2026-05-06 16:59 38.41811 23.31170 39043 ft 466 kts 139°
2026-05-06 16:59 38.37019 23.36752 39044 ft 467 kts 139°
2026-05-06 17:00 38.32223 23.42328 39049 ft 467 kts 139°
2026-05-06 17:00 38.27452 23.47865 39051 ft 467 kts 139°
2026-05-06 17:01 38.22654 23.53426 39057 ft 467 kts 139°
2026-05-06 17:01 38.17848 23.58980 39050 ft 467 kts 139°
2026-05-06 17:02 38.13043 23.64521 39047 ft 466 kts 139°
2026-05-06 17:02 38.08273 23.70012 39046 ft 466 kts 139°
2026-05-06 17:03 38.03478 23.75525 39055 ft 465 kts 139°
2026-05-06 17:03 37.98681 23.81031 39057 ft 465 kts 139°
2026-05-06 17:04 37.93886 23.86524 39071 ft 464 kts 139°
2026-05-06 17:04 37.89125 23.91963 39077 ft 464 kts 139°
2026-05-06 17:05 37.84326 23.97436 39083 ft 465 kts 139°
2026-05-06 17:05 37.79517 24.02912 39074 ft 465 kts 139°
2026-05-06 17:06 37.74648 24.08296 39067 ft 465 kts 145°
2026-05-06 17:06 37.69160 24.12564 39069 ft 463 kts 153°
2026-05-06 17:07 37.63586 24.16555 39070 ft 464 kts 150°
2026-05-06 17:07 37.58066 24.20779 39071 ft 465 kts 150°
2026-05-06 17:08 37.52506 24.24954 39068 ft 465 kts 151°
2026-05-06 17:08 37.46939 24.29095 39071 ft 465 kts 151°
2026-05-06 17:09 37.41403 24.33209 39070 ft 465 kts 151°
2026-05-06 17:09 37.35832 24.37346 39076 ft 465 kts 151°
2026-05-06 17:10 37.30255 24.41481 39065 ft 466 kts 151°
2026-05-06 17:10 37.24674 24.45613 39074 ft 465 kts 151°
2026-05-06 17:11 37.19094 24.49736 39030 ft 467 kts 151°
2026-05-06 17:11 37.16309 24.51791 38498 ft 474 kts 151°
2026-05-06 17:11 37.13473 24.53882 37950 ft 471 kts 151°
2026-05-06 17:11 37.10654 24.55959 37423 ft 469 kts 151°
2026-05-06 17:12 37.07848 24.58025 36845 ft 468 kts 151°
2026-05-06 17:12 37.05047 24.60085 36282 ft 467 kts 152°
2026-05-06 17:12 37.02246 24.62144 35706 ft 467 kts 152°
2026-05-06 17:12 36.99444 24.64201 35096 ft 468 kts 152°
2026-05-06 17:13 36.96632 24.66264 34488 ft 469 kts 152°
2026-05-06 17:13 36.93852 24.68301 33828 ft 472 kts 152°
2026-05-06 17:13 36.91015 24.70378 33122 ft 473 kts 152°
2026-05-06 17:13 36.88168 24.72462 32433 ft 474 kts 152°
2026-05-06 17:14 36.85318 24.74544 31753 ft 475 kts 152°
2026-05-06 17:14 36.82467 24.76624 31066 ft 476 kts 152°
2026-05-06 17:14 36.79603 24.78713 30380 ft 477 kts 152°
2026-05-06 17:14 36.76753 24.80792 29854 ft 473 kts 151°
2026-05-06 17:15 36.73920 24.82857 29280 ft 469 kts 151°
2026-05-06 17:15 36.71118 24.84897 28784 ft 464 kts 151°
2026-05-06 17:15 36.68382 24.86886 28243 ft 459 kts 152°
2026-05-06 17:15 36.65542 24.88626 27276 ft 454 kts 161°
2026-05-06 17:16 36.62566 24.89959 26225 ft 454 kts 162°
2026-05-06 17:16 36.59596 24.91222 25407 ft 448 kts 163°
2026-05-06 17:16 36.56659 24.92464 24602 ft 444 kts 162°
2026-05-06 17:16 36.53756 24.93705 23811 ft 439 kts 162°
2026-05-06 17:17 36.50881 24.94951 22922 ft 435 kts 162°
2026-05-06 17:17 36.48047 24.96193 22093 ft 429 kts 161°
2026-05-06 17:17 36.45287 24.97411 21305 ft 423 kts 162°
2026-05-06 17:17 36.42533 24.98631 20520 ft 418 kts 162°
2026-05-06 17:18 36.39805 24.99840 19746 ft 414 kts 162°
2026-05-06 17:18 36.37112 25.01033 19016 ft 409 kts 162°
2026-05-06 17:18 36.34431 25.02220 18350 ft 410 kts 162°
2026-05-06 17:18 36.31752 25.03403 17878 ft 406 kts 162°
2026-05-06 17:19 36.29114 25.04569 17576 ft 398 kts 162°
2026-05-06 17:19 36.26531 25.05710 17257 ft 391 kts 162°
2026-05-06 17:19 36.23983 25.06834 16803 ft 387 kts 162°
2026-05-06 17:19 36.21481 25.07936 16339 ft 386 kts 162°
2026-05-06 17:20 36.18967 25.09043 15938 ft 382 kts 162°
2026-05-06 17:20 36.16473 25.10140 15506 ft 379 kts 161°
2026-05-06 17:20 36.13999 25.11228 15066 ft 376 kts 161°
2026-05-06 17:20 36.11539 25.12309 14642 ft 374 kts 161°
2026-05-06 17:21 36.09092 25.13383 14224 ft 372 kts 161°
2026-05-06 17:21 36.06660 25.14450 13757 ft 371 kts 161°
2026-05-06 17:21 36.04234 25.15514 13285 ft 368 kts 161°
2026-05-06 17:21 36.01830 25.16568 12835 ft 366 kts 161°
2026-05-06 17:22 35.99476 25.17599 12406 ft 363 kts 161°
2026-05-06 17:22 35.97107 25.18636 11977 ft 360 kts 161°
2026-05-06 17:22 35.94757 25.19664 11553 ft 357 kts 160°
2026-05-06 17:22 35.92425 25.20684 11132 ft 354 kts 160°
2026-05-06 17:23 35.90115 25.21693 10817 ft 348 kts 160°
2026-05-06 17:23 35.87867 25.22675 10669 ft 338 kts 160°
2026-05-06 17:23 35.85684 25.23628 10513 ft 328 kts 160°
2026-05-06 17:23 35.83562 25.24553 10375 ft 319 kts 160°
2026-05-06 17:24 35.81504 25.25450 10244 ft 310 kts 160°
2026-05-06 17:24 35.79523 25.26313 10113 ft 302 kts 160°
2026-05-06 17:24 35.77556 25.27170 9833 ft 299 kts 160°
2026-05-06 17:24 35.75592 25.28025 9462 ft 299 kts 160°
2026-05-06 17:25 35.73635 25.28877 9152 ft 298 kts 160°
2026-05-06 17:25 35.71687 25.29724 8851 ft 296 kts 160°
2026-05-06 17:25 35.69754 25.30564 8553 ft 294 kts 160°
2026-05-06 17:25 35.67834 25.31398 8260 ft 292 kts 160°
2026-05-06 17:26 35.65926 25.32226 7973 ft 290 kts 160°
2026-05-06 17:26 35.64028 25.33050 7687 ft 288 kts 160°
2026-05-06 17:26 35.62165 25.33858 7395 ft 287 kts 160°
2026-05-06 17:26 35.60285 25.34673 7103 ft 286 kts 160°
2026-05-06 17:27 35.58411 25.35485 6820 ft 285 kts 160°
2026-05-06 17:27 35.56545 25.36293 6530 ft 284 kts 160°
2026-05-06 17:27 35.54684 25.37091 6219 ft 283 kts 163°
2026-05-06 17:27 35.52761 25.37403 5970 ft 276 kts 181°
2026-05-06 17:28 35.50862 25.37304 5586 ft 271 kts 184°
2026-05-06 17:28 35.48986 25.37151 5178 ft 267 kts 185°
2026-05-06 17:28 35.47186 25.36978 4926 ft 252 kts 186°
2026-05-06 17:28 35.45491 25.36819 4570 ft 243 kts 185°
2026-05-06 17:29 35.43818 25.36665 4115 ft 240 kts 185°
2026-05-06 17:29 35.42173 25.36497 3801 ft 235 kts 186°
2026-05-06 17:29 35.40560 25.36334 3567 ft 228 kts 185°
2026-05-06 17:29 35.39001 25.36177 3321 ft 220 kts 185°
2026-05-06 17:30 35.37487 25.36040 2948 ft 216 kts 185°
2026-05-06 17:30 35.36041 25.35948 2677 ft 200 kts 183°
2026-05-06 17:30 35.34700 25.35820 2350 ft 188 kts 196°
2026-05-06 17:30 35.33663 25.35049 2155 ft 170 kts 229°
2026-05-06 17:31 35.33109 25.33834 1879 ft 161 kts 255°
2026-05-06 17:31 35.32949 25.32498 1820 ft 157 kts 270°
2026-05-06 17:31 35.33051 25.31157 1793 ft 159 kts 277°
2026-05-06 17:31 35.33167 25.29795 1777 ft 162 kts 275°
2026-05-06 17:32 35.33248 25.28402 1586 ft 164 kts 274°
2026-05-06 17:32 35.33325 25.27076 1406 ft 150 kts 274°
2026-05-06 17:32 35.33420 25.25785 1140 ft 155 kts 275°
2026-05-06 17:32 35.33507 25.24471 919 ft 158 kts 274°
2026-05-06 17:33 35.33610 25.23129 736 ft 159 kts 275°
2026-05-06 17:33 35.33705 25.21786 536 ft 158 kts 275°
2026-05-06 17:33 35.33800 25.20453 347 ft 157 kts 275°
2026-05-06 17:33 35.33895 25.19135 147 ft 155 kts 276°
2026-05-06 17:34 35.33984 25.17899 94 ft 124 kts 275°
2026-05-06 17:34 35.34039 25.17104 89 ft 63 kts 275°
2026-05-06 17:34 35.34053 25.16859 92 ft 8 kts 253°
2026-05-06 17:34 35.34014 25.16862 92 ft 7 kts 122°
2026-05-06 17:35 35.33989 25.16912 91 ft 7 kts 123°
2026-05-06 17:35 35.33964 25.16949 91 ft 5 kts 146°
2026-05-06 17:35 35.33929 25.16954 90 ft 5 kts 183°
2026-05-06 17:36 35.33888 25.16938 93 ft 2 kts 252°
2026-05-06 17:36 35.33896 25.16924 89 ft 2 kts 317°
2026-05-06 17:36 35.33903 25.16915 92 ft 0 kts 316°